User: anonymous   Login
Location: Unspecified
(0.0000°N, 0.0000°E)
Time: 17:11:57
(UTC+00:00)
Language:

Vela 4B - Orbit

View from above orbital plane
View from above orbital plane
View from above satellite
View from above satellite

Ground track
Ground track

The orbit data is extracted from the following two-line orbital elements,

1 02766U 67040B   21107.13164955 -.00001069  00000-0  00000-0 0  9990
2 02766  26.3268  27.9372 4725007  39.6363 357.8471  0.21347825 42211
Epoch (UTC): 17 April 2021 03:09:34
Eccentricity: 0.4725007
inclination: 26.3268°
perigee height: 56002 km
apogee height: 167756 km
right ascension of ascending node: 27.9372°
argument of perigee: 39.6363°
revolutions per day: 0.21347825
mean anomaly at epoch: 357.8471°
orbit number at epoch: 4221

The dashed part of the orbit path shows where the satellite is in the earth's shadow,  

DLR